Weather in Timoshkino

Russia / Orenburg Oblast     53°23′04″N   53°26′30″E
temp.,
°C
wind,
m/s
gust,
m/s
humid.,
%
clouds,
%
prec.,
mm/h
press.,
hPa
HPBL,
m
4 march, thu
thu423:00−9w489892 0.5 1004126
02:00−7wnw5119589 0.2 1005369
05:00−12wnw459775 0.3 100674
08:00−13wsw4610095 0.1 1006105
11:00−10sw5119797 0.1 1007277
14:00−5sw71295100 0.7 1005618
17:00−4sw91494100 1.1 1003810
20:00−3sw101696100 1.4 1001876
5 march, fri
fri523:000wsw111897100 3.6 10001027
02:00−1wsw101697100 1.5 1000907
05:00−2wsw91597100 2.9 1001776
08:00−2sw81497100 1.5 1001708
11:00−2sw81297100 2.9 1002665
14:00−1sw71098100 1.7 1002663
17:00−3n6895100 3.7 1004389
20:00−6nw349597 0.1 100676
6 march, sat
sat623:00−10nw339195 0.1 101025
02:00−15nw22840 0.0 101220
05:00−17w118026 0.0 101420
08:00−17wsw128775 0.0 101520
11:00−13sw238867 0.0 1015101
14:00−10sw359160 0.0 1014236
17:00−8wsw249677 0.0 1014263
20:00−11wsw2298100 0.1 101321
7 march, sun
sun723:00−12nw2298100 0.1 101321
02:00−14n3496100 0.0 101167
05:00−17n469698 0.0 1012105
08:00−22nnw339833 0.0 101222
11:00−18nw359417 0.0 1014173
14:00−15wnw35928 0.0 1014251
17:00−15wsw359528 0.0 1014203
20:00−17s339651 0.0 101427
8 march, mon
mon823:00−16s489773 0.2 1014225
02:00−16s51198100 0.2 1011253
05:00−13s81495100 0.5 1008410
08:00−9ssw91793100 0.4 1005727
11:00−5sw101595100 1.7 10051050
14:00−5wsw7117590 0.9 1007943
17:00−6s368678 0.9 1007240
20:00−4ssw91596100 1.1 1004907